GEC8400 YMML-WMKP

Flight info

Callsign GEC8400
Flight time 8h 12m
Altitude 28000
Route NEVIS H345 DRINA/N0490F300 H345 AD A585 GUKON/N0494F320 A585 IMABA/N0486F340 A585 HLM B469 SJ G579 VJB A457 TEPUS GORVU1F
Aircraft MD11/H-SDE1E2E3FGHIJ2J3J4J5M1RWXY/LB1D1

Departure

Time 2026-04-24 13:12
Airport Melbourne Airport (YMML)

Arrival

Time 2026-04-24 21:24
Airport Penang International Airport (WMKP)
Time Latitude Longitude Altitude Speed Heading
2026-04-24 12:37 -37.67785 144.84827 377 ft 0 kts 172°
2026-04-24 12:59 -37.67783 144.84827 377 ft 2 kts 172°
2026-04-24 13:00 -37.67758 144.84821 378 ft 4 kts 171°
2026-04-24 13:00 -37.67741 144.84821 379 ft 3 kts 206°
2026-04-24 13:00 -37.67724 144.84836 380 ft 4 kts 248°
2026-04-24 13:00 -37.67719 144.84852 380 ft 0 kts 258°
2026-04-24 13:05 -37.67720 144.84846 380 ft 2 kts 259°
2026-04-24 13:05 -37.67728 144.84785 379 ft 11 kts 261°
2026-04-24 13:05 -37.67740 144.84687 378 ft 12 kts 262°
2026-04-24 13:06 -37.67788 144.84601 376 ft 12 kts 219°
2026-04-24 13:06 -37.67825 144.84508 372 ft 11 kts 259°
2026-04-24 13:06 -37.67859 144.84414 373 ft 11 kts 214°
2026-04-24 13:06 -37.67938 144.84407 371 ft 12 kts 172°
2026-04-24 13:07 -37.68036 144.84424 364 ft 16 kts 172°
2026-04-24 13:07 -37.68159 144.84447 364 ft 19 kts 172°
2026-04-24 13:07 -37.68287 144.84470 358 ft 18 kts 174°
2026-04-24 13:07 -37.68399 144.84423 362 ft 15 kts 217°
2026-04-24 13:08 -37.68475 144.84361 355 ft 14 kts 213°
2026-04-24 13:08 -37.68541 144.84276 353 ft 9 kts 244°
2026-04-24 13:08 -37.68545 144.84260 355 ft 0 kts 251°
2026-04-24 13:10 -37.68546 144.84258 348 ft 2 kts 251°
2026-04-24 13:10 -37.68554 144.84214 353 ft 9 kts 259°
2026-04-24 13:10 -37.68544 144.84131 359 ft 11 kts 295°
2026-04-24 13:11 -37.68463 144.84078 360 ft 16 kts 350°
2026-04-24 13:11 -37.68149 144.84019 363 ft 83 kts 351°
2026-04-24 13:11 -37.67339 144.83866 380 ft 149 kts 351°
2026-04-24 13:11 -37.66163 144.83638 524 ft 183 kts 352°
2026-04-24 13:12 -37.64886 144.83390 1170 ft 186 kts 352°
2026-04-24 13:12 -37.63600 144.83144 1982 ft 189 kts 353°
2026-04-24 13:12 -37.62257 144.82900 2721 ft 203 kts 353°
2026-04-24 13:12 -37.60823 144.82668 3415 ft 212 kts 352°
2026-04-24 13:13 -37.59328 144.82436 4103 ft 224 kts 351°
2026-04-24 13:13 -37.57779 144.82164 4905 ft 224 kts 350°
2026-04-24 13:13 -37.56133 144.81854 5107 ft 254 kts 350°
2026-04-24 13:13 -37.54286 144.81509 5258 ft 282 kts 350°
2026-04-24 13:14 -37.52299 144.81144 5851 ft 289 kts 350°
2026-04-24 13:14 -37.50293 144.80781 6635 ft 293 kts 351°
2026-04-24 13:14 -37.48260 144.80381 7271 ft 298 kts 345°
2026-04-24 13:14 -37.46392 144.79284 7953 ft 300 kts 322°
2026-04-24 13:15 -37.45050 144.77300 8658 ft 303 kts 298°
2026-04-24 13:15 -37.44418 144.74742 9319 ft 309 kts 281°
2026-04-24 13:15 -37.44167 144.72023 9926 ft 315 kts 277°
2026-04-24 13:15 -37.43955 144.69259 10556 ft 321 kts 279°
2026-04-24 13:16 -37.43579 144.66396 10689 ft 341 kts 284°
2026-04-24 13:16 -37.42961 144.63445 11019 ft 352 kts 289°
2026-04-24 13:16 -37.42181 144.60549 11593 ft 356 kts 291°
2026-04-24 13:16 -37.41276 144.57635 12197 ft 359 kts 293°
2026-04-24 13:17 -37.40296 144.54725 12834 ft 362 kts 295°
2026-04-24 13:17 -37.39271 144.51820 13423 ft 365 kts 295°
2026-04-24 13:17 -37.38216 144.48899 13972 ft 370 kts 295°
2026-04-24 13:17 -37.37133 144.45940 14453 ft 374 kts 295°
2026-04-24 13:18 -37.36034 144.42955 14965 ft 377 kts 295°
2026-04-24 13:18 -37.34928 144.39959 15460 ft 380 kts 295°
2026-04-24 13:18 -37.33811 144.36941 15961 ft 382 kts 295°
2026-04-24 13:18 -37.32686 144.33903 16432 ft 385 kts 295°
2026-04-24 13:19 -37.31553 144.30847 16905 ft 387 kts 295°
2026-04-24 13:19 -37.30414 144.27776 17382 ft 389 kts 295°
2026-04-24 13:19 -37.29262 144.24675 17824 ft 392 kts 295°
2026-04-24 13:19 -37.28105 144.21563 18287 ft 394 kts 295°
2026-04-24 13:20 -37.26940 144.18435 18737 ft 397 kts 295°
2026-04-24 13:20 -37.25782 144.15325 19100 ft 399 kts 295°
2026-04-24 13:20 -37.24600 144.12157 19476 ft 401 kts 295°
2026-04-24 13:20 -37.23411 144.08973 19834 ft 403 kts 295°
2026-04-24 13:21 -37.22219 144.05783 20197 ft 405 kts 295°
2026-04-24 13:21 -37.21015 144.02565 20545 ft 407 kts 295°
2026-04-24 13:21 -37.19809 143.99344 20888 ft 410 kts 295°
2026-04-24 13:21 -37.18591 143.96095 21240 ft 412 kts 295°
2026-04-24 13:22 -37.17369 143.92840 21593 ft 414 kts 295°
2026-04-24 13:22 -37.16138 143.89563 21948 ft 416 kts 294°
2026-04-24 13:22 -37.14912 143.86314 22301 ft 418 kts 295°
2026-04-24 13:22 -37.13655 143.83012 22662 ft 421 kts 295°
2026-04-24 13:23 -37.12391 143.79699 23028 ft 423 kts 295°
2026-04-24 13:23 -37.11122 143.76364 23398 ft 425 kts 294°
2026-04-24 13:23 -37.09849 143.73009 23771 ft 427 kts 294°
2026-04-24 13:23 -37.08571 143.69638 24124 ft 429 kts 294°
2026-04-24 13:24 -37.07289 143.66255 24458 ft 431 kts 294°
2026-04-24 13:24 -37.06000 143.62854 24792 ft 433 kts 294°
2026-04-24 13:24 -37.04707 143.59446 25137 ft 434 kts 294°
2026-04-24 13:24 -37.03406 143.56020 25495 ft 436 kts 294°
2026-04-24 13:25 -37.02098 143.52582 25839 ft 438 kts 294°
2026-04-24 13:25 -37.00787 143.49136 26182 ft 439 kts 295°
2026-04-24 13:25 -36.99473 143.45687 26579 ft 440 kts 295°
2026-04-24 13:25 -36.98152 143.42225 26895 ft 442 kts 295°
2026-04-24 13:26 -36.96825 143.38751 27225 ft 444 kts 295°
2026-04-24 13:26 -36.95490 143.35261 27539 ft 445 kts 295°
2026-04-24 13:26 -36.94150 143.31760 27851 ft 447 kts 295°
2026-04-24 13:26 -36.92804 143.28248 28172 ft 449 kts 295°
2026-04-24 13:27 -36.91464 143.24754 28355 ft 452 kts 294°
2026-04-24 13:27 -36.90093 143.21185 28379 ft 460 kts 295°
2026-04-24 13:27 -36.87286 143.13887 28389 ft 469 kts 295°
2026-04-24 13:28 -36.84449 143.06533 28390 ft 470 kts 295°
2026-04-24 13:28 -36.81607 142.99183 28384 ft 469 kts 295°
2026-04-24 13:29 -36.78764 142.91859 28379 ft 469 kts 295°
2026-04-24 13:29 -36.75898 142.84558 28377 ft 469 kts 295°
2026-04-24 13:30 -36.73040 142.77255 28376 ft 468 kts 295°
2026-04-24 13:30 -36.70210 142.70010 28376 ft 467 kts 295°
2026-04-24 13:31 -36.67364 142.62732 28368 ft 467 kts 295°
2026-04-24 13:31 -36.64514 142.55459 28369 ft 467 kts 295°
2026-04-24 13:32 -36.61657 142.48189 28367 ft 466 kts 295°
2026-04-24 13:32 -36.58803 142.40942 28366 ft 466 kts 295°
2026-04-24 13:33 -36.55946 142.33704 28364 ft 466 kts 295°
2026-04-24 13:33 -36.53082 142.26465 28361 ft 466 kts 295°
2026-04-24 13:34 -36.50217 142.19239 28360 ft 466 kts 295°
2026-04-24 13:34 -36.47346 142.12013 28360 ft 466 kts 295°
2026-04-24 13:35 -36.44471 142.04796 28355 ft 466 kts 295°
2026-04-24 13:35 -36.41586 141.97592 28351 ft 466 kts 295°
2026-04-24 13:36 -36.38679 141.90400 28354 ft 466 kts 295°
2026-04-24 13:36 -36.35797 141.83245 28350 ft 466 kts 295°
2026-04-24 13:37 -36.32903 141.76049 28348 ft 466 kts 295°
2026-04-24 13:37 -36.30005 141.68852 28344 ft 466 kts 295°
2026-04-24 13:38 -36.27106 141.61669 28340 ft 466 kts 295°
2026-04-24 13:38 -36.24202 141.54492 28340 ft 465 kts 295°
2026-04-24 13:39 -36.21298 141.47332 28339 ft 465 kts 295°
2026-04-24 13:39 -36.18881 141.41383 28338 ft 465 kts 295°
2026-04-24 13:40 -36.15496 141.33070 28333 ft 465 kts 295°
2026-04-24 13:40 -36.13054 141.27089 28331 ft 464 kts 295°
2026-04-24 13:41 -36.10138 141.19958 28341 ft 464 kts 295°
2026-04-24 13:41 -36.07238 141.12883 28323 ft 464 kts 295°
2026-04-24 13:42 -36.04308 141.05772 28321 ft 464 kts 296°
2026-04-24 13:42 -36.01356 140.98671 28331 ft 464 kts 296°
2026-04-24 13:43 -35.98414 140.91571 28317 ft 464 kts 296°
2026-04-24 13:43 -35.95476 140.84468 28308 ft 464 kts 296°
2026-04-24 13:44 -35.92539 140.77378 28314 ft 464 kts 296°
2026-04-24 13:44 -35.89595 140.70288 28303 ft 464 kts 296°
2026-04-24 13:45 -35.86646 140.63204 28322 ft 464 kts 296°
2026-04-24 13:45 -35.83700 140.56139 28296 ft 463 kts 296°
2026-04-24 13:46 -35.80748 140.49077 28313 ft 463 kts 296°
2026-04-24 13:46 -35.77793 140.42023 28289 ft 463 kts 296°
2026-04-24 13:47 -35.74858 140.35030 28306 ft 463 kts 296°
2026-04-24 13:47 -35.71900 140.27999 28288 ft 463 kts 296°
2026-04-24 13:48 -35.68938 140.20972 28306 ft 463 kts 296°
2026-04-24 13:48 -35.65962 140.13955 28283 ft 462 kts 296°
2026-04-24 13:49 -35.62976 140.06967 28304 ft 462 kts 296°
2026-04-24 13:49 -35.59996 139.99968 28282 ft 462 kts 296°
2026-04-24 13:50 -35.57022 139.92976 28297 ft 461 kts 296°
2026-04-24 13:50 -35.54063 139.86030 28291 ft 461 kts 296°
2026-04-24 13:51 -35.51087 139.79058 28290 ft 461 kts 296°
2026-04-24 13:51 -35.48106 139.72090 28277 ft 461 kts 296°
2026-04-24 13:52 -35.45123 139.65132 28295 ft 461 kts 296°
2026-04-24 13:52 -35.42134 139.58177 28272 ft 461 kts 296°
2026-04-24 13:53 -35.39142 139.51226 28285 ft 461 kts 296°
2026-04-24 13:53 -35.36165 139.44324 28265 ft 461 kts 296°
2026-04-24 13:54 -35.33165 139.37385 28279 ft 461 kts 296°
2026-04-24 13:54 -35.30160 139.30450 28273 ft 461 kts 296°
2026-04-24 13:55 -35.27142 139.23524 28280 ft 461 kts 296°
2026-04-24 13:55 -35.24107 139.16609 28280 ft 461 kts 296°
2026-04-24 13:56 -35.21081 139.09692 28276 ft 461 kts 296°
2026-04-24 13:56 -35.18056 139.02770 28278 ft 461 kts 296°
2026-04-24 13:57 -35.15034 138.95864 28281 ft 461 kts 296°
2026-04-24 13:57 -35.12004 138.88955 28275 ft 461 kts 296°
2026-04-24 13:58 -35.08993 138.82104 28264 ft 460 kts 297°
2026-04-24 13:58 -35.05955 138.75204 28471 ft 462 kts 297°
2026-04-24 13:59 -35.04434 138.71757 28859 ft 461 kts 297°
2026-04-24 13:59 -35.02912 138.68309 29274 ft 461 kts 297°
2026-04-24 13:59 -35.01348 138.64910 29693 ft 460 kts 299°
2026-04-24 13:59 -34.99649 138.61600 30093 ft 460 kts 301°
2026-04-24 14:00 -34.97880 138.58340 30225 ft 461 kts 302°
2026-04-24 14:00 -34.96087 138.55105 30256 ft 461 kts 302°
2026-04-24 14:00 -34.92497 138.48637 30265 ft 461 kts 302°
2026-04-24 14:01 -34.88927 138.42154 30265 ft 461 kts 302°
2026-04-24 14:01 -34.85367 138.35669 30258 ft 460 kts 302°
2026-04-24 14:02 -34.81802 138.29182 30250 ft 460 kts 302°
2026-04-24 14:02 -34.78236 138.22705 30243 ft 460 kts 302°
2026-04-24 14:03 -34.74692 138.16280 30237 ft 460 kts 302°
2026-04-24 14:03 -34.71120 138.09818 30235 ft 460 kts 302°
2026-04-24 14:04 -34.67524 138.03324 30238 ft 460 kts 302°
2026-04-24 14:04 -34.63964 137.96906 30235 ft 460 kts 302°
2026-04-24 14:05 -34.60382 137.90461 30236 ft 460 kts 302°
2026-04-24 14:05 -34.56792 137.84033 30232 ft 460 kts 302°
2026-04-24 14:06 -34.53176 137.77623 30233 ft 460 kts 302°
2026-04-24 14:06 -34.49569 137.71218 30230 ft 459 kts 302°
2026-04-24 14:07 -34.45966 137.64815 30227 ft 459 kts 302°
2026-04-24 14:07 -34.42386 137.58459 30224 ft 459 kts 302°
2026-04-24 14:08 -34.38781 137.52071 30223 ft 459 kts 302°
2026-04-24 14:08 -34.35179 137.45698 30221 ft 458 kts 302°
2026-04-24 14:09 -34.31573 137.39332 30225 ft 459 kts 302°
2026-04-24 14:09 -34.27966 137.32974 30222 ft 458 kts 302°
2026-04-24 14:10 -34.24363 137.26636 30219 ft 457 kts 302°
2026-04-24 14:10 -34.20750 137.20290 30219 ft 457 kts 302°
2026-04-24 14:11 -34.17162 137.13999 30220 ft 458 kts 302°
2026-04-24 14:12 -34.11733 137.04500 30219 ft 458 kts 302°
2026-04-24 14:12 -34.08094 136.98185 30221 ft 458 kts 303°
2026-04-24 14:13 -34.04456 136.91883 30216 ft 457 kts 302°
2026-04-24 14:13 -34.00859 136.85637 30216 ft 456 kts 302°
2026-04-24 14:14 -33.97240 136.79353 30214 ft 456 kts 302°
2026-04-24 14:14 -33.91808 136.69939 30214 ft 456 kts 302°
2026-04-24 14:15 -33.88187 136.63679 30216 ft 456 kts 302°
2026-04-24 14:15 -33.84556 136.57413 30217 ft 456 kts 303°
2026-04-24 14:16 -33.80927 136.51159 30217 ft 456 kts 303°
2026-04-24 14:17 -33.75494 136.41820 30222 ft 456 kts 303°
2026-04-24 14:17 -33.70039 136.32464 30219 ft 456 kts 303°
2026-04-24 14:18 -33.66391 136.26223 30222 ft 456 kts 303°
2026-04-24 14:18 -33.62743 136.19999 30220 ft 456 kts 303°
2026-04-24 14:19 -33.59077 136.13792 30222 ft 456 kts 303°
2026-04-24 14:19 -33.55414 136.07580 30216 ft 456 kts 303°
2026-04-24 14:20 -33.51756 136.01368 30215 ft 456 kts 303°
2026-04-24 14:20 -33.48102 135.95168 30216 ft 456 kts 303°
2026-04-24 14:21 -33.44460 135.89000 30205 ft 455 kts 303°
2026-04-24 14:21 -33.40805 135.82808 30212 ft 455 kts 303°
2026-04-24 14:22 -33.37159 135.76620 30210 ft 455 kts 303°
2026-04-24 14:23 -33.31693 135.67348 30212 ft 454 kts 303°
2026-04-24 14:23 -33.28048 135.61176 30204 ft 454 kts 303°
2026-04-24 14:24 -33.24397 135.55006 30206 ft 454 kts 303°
2026-04-24 14:24 -33.20752 135.48856 30204 ft 453 kts 303°
2026-04-24 14:25 -33.17719 135.43746 30196 ft 453 kts 303°
2026-04-24 14:25 -33.13478 135.36614 30204 ft 453 kts 303°
2026-04-24 14:26 -33.09829 135.30489 30190 ft 452 kts 303°
2026-04-24 14:26 -33.06184 135.24380 30202 ft 452 kts 303°
2026-04-24 14:27 -33.02534 135.18272 30189 ft 452 kts 303°
2026-04-24 14:27 -32.98872 135.12178 30196 ft 452 kts 303°
2026-04-24 14:28 -32.95175 135.06110 30186 ft 452 kts 303°
2026-04-24 14:28 -32.91481 135.00046 30195 ft 452 kts 303°
2026-04-24 14:29 -32.87795 134.93990 30175 ft 450 kts 302°
2026-04-24 14:29 -32.84148 134.88003 30185 ft 449 kts 303°
2026-04-24 14:30 -32.81077 134.82966 30187 ft 449 kts 303°
2026-04-24 14:30 -32.76811 134.75983 30180 ft 449 kts 302°
2026-04-24 14:31 -32.73764 134.71005 30192 ft 447 kts 302°
2026-04-24 14:31 -32.70103 134.65030 30194 ft 447 kts 302°
2026-04-24 14:32 -32.66436 134.59054 30187 ft 447 kts 303°
2026-04-24 14:32 -32.62773 134.53097 30179 ft 446 kts 302°
2026-04-24 14:33 -32.59115 134.47156 30181 ft 446 kts 302°
2026-04-24 14:33 -32.55456 134.41221 30182 ft 446 kts 302°
2026-04-24 14:34 -32.51798 134.35302 30173 ft 444 kts 302°
2026-04-24 14:34 -32.48136 134.29415 30171 ft 444 kts 302°
2026-04-24 14:35 -32.44470 134.23528 30173 ft 444 kts 302°
2026-04-24 14:35 -32.40812 134.17644 30172 ft 443 kts 302°
2026-04-24 14:36 -32.37165 134.11777 30167 ft 442 kts 302°
2026-04-24 14:36 -32.33539 134.05952 30165 ft 442 kts 302°
2026-04-24 14:37 -32.29893 134.00105 30169 ft 441 kts 302°
2026-04-24 14:37 -32.26254 133.94278 30165 ft 441 kts 302°
2026-04-24 14:38 -32.22606 133.88444 30165 ft 441 kts 302°
2026-04-24 14:38 -32.18961 133.82625 30165 ft 440 kts 302°
2026-04-24 14:39 -32.15321 133.76825 30164 ft 439 kts 302°
2026-04-24 14:39 -32.11685 133.71083 30163 ft 439 kts 303°
2026-04-24 14:40 -32.07976 133.65348 30144 ft 439 kts 303°
2026-04-24 14:40 -32.04266 133.59625 30160 ft 439 kts 303°
2026-04-24 14:41 -32.00564 133.53906 30159 ft 438 kts 303°
2026-04-24 14:41 -31.96862 133.48191 30156 ft 438 kts 303°
2026-04-24 14:42 -31.93163 133.42487 30160 ft 438 kts 303°
2026-04-24 14:42 -31.89463 133.36792 30156 ft 437 kts 303°
2026-04-24 14:43 -31.85767 133.31111 30154 ft 437 kts 303°
2026-04-24 14:43 -31.82069 133.25435 30153 ft 437 kts 303°
2026-04-24 14:44 -31.78396 133.19807 30155 ft 436 kts 303°
2026-04-24 14:44 -31.76553 133.16987 30470 ft 433 kts 303°
2026-04-24 14:44 -31.74742 133.14219 30849 ft 430 kts 303°
2026-04-24 14:44 -31.72921 133.11437 31211 ft 429 kts 303°
2026-04-24 14:45 -31.71109 133.08669 31555 ft 427 kts 302°
2026-04-24 14:45 -31.69303 133.05912 31879 ft 425 kts 302°
2026-04-24 14:45 -31.67498 133.03160 32206 ft 424 kts 302°
2026-04-24 14:45 -31.65703 133.00424 32557 ft 421 kts 302°
2026-04-24 14:46 -31.63918 132.97706 32894 ft 419 kts 301°
2026-04-24 14:46 -31.62141 132.95007 33182 ft 417 kts 301°
2026-04-24 14:46 -31.60363 132.92320 33475 ft 416 kts 301°
2026-04-24 14:46 -31.58592 132.89646 33720 ft 415 kts 301°
2026-04-24 14:47 -31.56823 132.86971 33982 ft 414 kts 301°
2026-04-24 14:47 -31.55059 132.84301 34112 ft 414 kts 300°
2026-04-24 14:47 -31.53297 132.81632 34143 ft 413 kts 300°
2026-04-24 14:48 -31.49808 132.76346 34148 ft 413 kts 300°
2026-04-24 14:48 -31.46297 132.71033 34135 ft 412 kts 300°
2026-04-24 14:49 -31.42779 132.65715 34147 ft 413 kts 300°
2026-04-24 14:49 -31.39257 132.60401 34151 ft 412 kts 300°
2026-04-24 14:50 -31.35741 132.55105 34150 ft 411 kts 300°
2026-04-24 14:50 -31.32231 132.49823 34135 ft 411 kts 300°
2026-04-24 14:51 -31.28714 132.44537 34142 ft 411 kts 300°
2026-04-24 14:51 -31.25220 132.39294 34147 ft 411 kts 300°
2026-04-24 14:52 -31.21710 132.34036 34126 ft 410 kts 300°
2026-04-24 14:52 -31.18200 132.28784 34138 ft 410 kts 300°
2026-04-24 14:53 -31.14688 132.23534 34141 ft 410 kts 300°
2026-04-24 14:53 -31.11176 132.18294 34140 ft 409 kts 300°
2026-04-24 14:54 -31.07652 132.13078 34137 ft 409 kts 300°
2026-04-24 14:54 -31.04131 132.07855 34141 ft 409 kts 300°
2026-04-24 14:55 -31.01207 132.03514 34141 ft 409 kts 300°
2026-04-24 14:55 -30.97115 131.97439 34147 ft 409 kts 300°
2026-04-24 14:56 -30.93604 131.92235 34130 ft 409 kts 300°
2026-04-24 14:56 -30.90081 131.87016 34137 ft 410 kts 300°
2026-04-24 14:57 -30.86553 131.81802 34134 ft 410 kts 300°
2026-04-24 14:57 -30.83011 131.76596 34147 ft 410 kts 300°
2026-04-24 14:58 -30.79475 131.71408 34130 ft 409 kts 300°
2026-04-24 14:58 -30.75935 131.66211 34129 ft 409 kts 300°
2026-04-24 14:59 -30.72398 131.61024 34130 ft 409 kts 300°
2026-04-24 14:59 -30.68857 131.55836 34146 ft 409 kts 300°
2026-04-24 15:00 -30.65346 131.50703 34131 ft 408 kts 300°
2026-04-24 15:00 -30.61820 131.45550 34129 ft 407 kts 300°
2026-04-24 15:01 -30.58290 131.40398 34130 ft 408 kts 300°
2026-04-24 15:01 -30.54757 131.35250 34106 ft 408 kts 300°
2026-04-24 15:02 -30.51221 131.30103 34123 ft 407 kts 300°
2026-04-24 15:02 -30.47715 131.25007 34120 ft 407 kts 300°
2026-04-24 15:03 -30.44756 131.20711 34120 ft 407 kts 300°
2026-04-24 15:03 -30.40650 131.14757 34111 ft 407 kts 300°
2026-04-24 15:04 -30.37114 131.09639 34123 ft 406 kts 300°
2026-04-24 15:04 -30.33580 131.04537 34116 ft 406 kts 300°
2026-04-24 15:05 -30.30035 130.99449 34116 ft 406 kts 300°
2026-04-24 15:05 -30.26490 130.94351 34110 ft 406 kts 301°
2026-04-24 15:06 -30.22956 130.89265 34120 ft 405 kts 301°
2026-04-24 15:06 -30.19448 130.84221 34109 ft 405 kts 301°
2026-04-24 15:07 -30.15921 130.79152 34118 ft 405 kts 301°
2026-04-24 15:07 -30.12391 130.74085 34110 ft 405 kts 301°
2026-04-24 15:08 -30.08854 130.69016 34122 ft 405 kts 301°
2026-04-24 15:08 -30.05311 130.63946 34116 ft 405 kts 301°
2026-04-24 15:09 -30.01769 130.58883 34119 ft 405 kts 301°
2026-04-24 15:09 -29.98226 130.53825 34104 ft 405 kts 302°
2026-04-24 15:10 -29.94705 130.48804 34110 ft 405 kts 302°
2026-04-24 15:10 -29.91162 130.43760 34116 ft 404 kts 302°
2026-04-24 15:11 -29.87619 130.38720 34124 ft 404 kts 302°
2026-04-24 15:11 -29.84075 130.33687 34101 ft 405 kts 302°
2026-04-24 15:12 -29.80521 130.28658 34115 ft 405 kts 302°
2026-04-24 15:12 -29.75182 130.21134 34104 ft 404 kts 302°
2026-04-24 15:13 -29.71638 130.16127 34120 ft 403 kts 302°
2026-04-24 15:13 -29.68093 130.11119 34113 ft 404 kts 303°
2026-04-24 15:14 -29.64544 130.06113 34113 ft 404 kts 303°
2026-04-24 15:14 -29.60991 130.01106 34113 ft 403 kts 303°
2026-04-24 15:15 -29.57468 129.96151 34114 ft 403 kts 303°
2026-04-24 15:15 -29.55694 129.93639 33315 ft 401 kts 303°
2026-04-24 15:15 -29.53966 129.91212 33742 ft 389 kts 303°
2026-04-24 15:16 -29.52251 129.88813 34033 ft 388 kts 303°
2026-04-24 15:16 -29.50534 129.86406 34101 ft 391 kts 303°
2026-04-24 15:16 -29.47048 129.81512 34111 ft 400 kts 303°
2026-04-24 15:17 -29.43506 129.76552 34114 ft 402 kts 303°
2026-04-24 15:17 -29.39955 129.71590 34109 ft 402 kts 303°
2026-04-24 15:18 -29.37004 129.67470 34112 ft 402 kts 303°
2026-04-24 15:18 -29.33452 129.62513 34109 ft 402 kts 303°
2026-04-24 15:19 -29.29899 129.57561 34111 ft 402 kts 303°
2026-04-24 15:19 -29.26333 129.52623 34111 ft 402 kts 304°
2026-04-24 15:20 -29.22767 129.47685 34111 ft 402 kts 303°
2026-04-24 15:20 -29.19230 129.42779 34110 ft 402 kts 303°
2026-04-24 15:21 -29.15672 129.37844 34111 ft 402 kts 304°
2026-04-24 15:21 -29.12112 129.32912 34113 ft 402 kts 304°
2026-04-24 15:22 -29.08546 129.27975 34106 ft 403 kts 304°
2026-04-24 15:23 -29.03184 129.20567 34110 ft 403 kts 304°
2026-04-24 15:23 -28.97818 129.13166 34115 ft 403 kts 304°
2026-04-24 15:25 -28.88859 129.00838 34108 ft 404 kts 304°
2026-04-24 15:26 -28.79894 128.88558 34108 ft 404 kts 305°
2026-04-24 15:27 -28.69128 128.73811 34105 ft 403 kts 305°
2026-04-24 15:29 -28.58328 128.59067 34107 ft 404 kts 305°
2026-04-24 15:31 -28.45724 128.41927 34110 ft 406 kts 305°
2026-04-24 15:33 -28.31161 128.22244 34103 ft 407 kts 306°
2026-04-24 15:34 -28.22049 128.09975 34109 ft 406 kts 306°
2026-04-24 15:35 -28.12971 127.97767 34109 ft 406 kts 306°
2026-04-24 15:36 -28.09327 127.92876 34106 ft 406 kts 306°
2026-04-24 15:36 -28.03862 127.85553 34108 ft 405 kts 306°
2026-04-24 15:37 -28.00219 127.80679 34098 ft 406 kts 306°
2026-04-24 15:37 -27.96566 127.75795 34106 ft 407 kts 306°
2026-04-24 15:38 -27.92911 127.70915 34105 ft 407 kts 306°
2026-04-24 15:38 -27.89252 127.66035 34106 ft 407 kts 306°
2026-04-24 15:39 -27.85591 127.61159 34105 ft 407 kts 306°
2026-04-24 15:39 -27.81925 127.56282 34103 ft 408 kts 306°
2026-04-24 15:40 -27.78239 127.51408 34105 ft 408 kts 306°
2026-04-24 15:40 -27.74575 127.46563 34113 ft 408 kts 306°
2026-04-24 15:41 -27.70898 127.41693 34108 ft 407 kts 306°
2026-04-24 15:41 -27.67219 127.36823 34107 ft 407 kts 306°
2026-04-24 15:42 -27.63547 127.31964 34108 ft 407 kts 306°
2026-04-24 15:42 -27.59865 127.27099 34107 ft 407 kts 306°
2026-04-24 15:43 -27.56188 127.22246 34107 ft 407 kts 307°
2026-04-24 15:43 -27.52509 127.17396 34104 ft 407 kts 307°
2026-04-24 15:44 -27.48858 127.12588 34104 ft 407 kts 307°
2026-04-24 15:44 -27.45179 127.07748 34107 ft 406 kts 307°
2026-04-24 15:45 -27.41502 127.02917 34107 ft 406 kts 307°
2026-04-24 15:45 -27.37819 126.98083 34112 ft 406 kts 307°
2026-04-24 15:46 -27.34138 126.93257 34110 ft 406 kts 307°
2026-04-24 15:46 -27.30455 126.88446 34109 ft 406 kts 307°
2026-04-24 15:47 -27.26762 126.83642 34107 ft 406 kts 307°
2026-04-24 15:47 -27.23071 126.78834 34106 ft 407 kts 307°
2026-04-24 15:48 -27.19400 126.74049 34111 ft 406 kts 307°
2026-04-24 15:48 -27.15705 126.69238 34091 ft 407 kts 307°
2026-04-24 15:49 -27.11997 126.64413 34101 ft 409 kts 307°
2026-04-24 15:49 -27.08278 126.59580 34121 ft 409 kts 307°
2026-04-24 15:50 -27.04557 126.54751 34096 ft 409 kts 307°
2026-04-24 15:50 -27.00836 126.49927 34106 ft 409 kts 308°
2026-04-24 15:51 -26.97115 126.45108 34109 ft 409 kts 307°
2026-04-24 15:51 -26.93379 126.40275 34102 ft 410 kts 308°
2026-04-24 15:52 -26.89647 126.35452 34110 ft 410 kts 308°
2026-04-24 15:52 -26.85913 126.30632 34108 ft 410 kts 308°
2026-04-24 15:53 -26.82174 126.25811 34103 ft 410 kts 308°
2026-04-24 15:53 -26.78427 126.20984 34104 ft 411 kts 308°
2026-04-24 15:54 -26.74685 126.16190 34100 ft 411 kts 308°
2026-04-24 15:54 -26.70921 126.11372 34105 ft 411 kts 308°
2026-04-24 15:55 -26.67159 126.06548 34105 ft 411 kts 308°
2026-04-24 15:55 -26.63401 126.01731 34111 ft 411 kts 308°
2026-04-24 15:56 -26.59621 125.96888 34110 ft 414 kts 308°
2026-04-24 15:56 -26.55831 125.92038 34109 ft 414 kts 308°
2026-04-24 15:57 -26.52039 125.87192 34114 ft 414 kts 308°
2026-04-24 15:57 -26.48247 125.82351 34114 ft 414 kts 308°
2026-04-24 15:58 -26.44451 125.77510 34097 ft 415 kts 308°
2026-04-24 15:58 -26.40632 125.72643 34113 ft 416 kts 308°
2026-04-24 15:59 -26.36822 125.67796 34113 ft 415 kts 308°
2026-04-24 15:59 -26.33038 125.62986 34113 ft 415 kts 308°
2026-04-24 16:00 -26.29225 125.58145 34118 ft 415 kts 308°
2026-04-24 16:00 -26.25410 125.53306 34106 ft 417 kts 308°
2026-04-24 16:01 -26.21553 125.48424 34117 ft 419 kts 308°
2026-04-24 16:01 -26.17697 125.43569 34110 ft 418 kts 308°
2026-04-24 16:02 -26.13852 125.38720 34107 ft 418 kts 308°
2026-04-24 16:02 -26.10008 125.33868 34107 ft 418 kts 308°
2026-04-24 16:03 -26.06811 125.29834 34104 ft 420 kts 308°
2026-04-24 16:03 -26.02263 125.24100 34109 ft 423 kts 309°
2026-04-24 16:04 -25.98392 125.19228 34105 ft 423 kts 309°
2026-04-24 16:04 -25.94489 125.14321 34100 ft 423 kts 309°
2026-04-24 16:05 -25.88634 125.06971 34102 ft 423 kts 309°
2026-04-24 16:06 -25.83430 125.00446 34103 ft 423 kts 309°
2026-04-24 16:07 -25.77577 124.93120 34104 ft 422 kts 309°
2026-04-24 16:07 -25.71736 124.85819 34101 ft 422 kts 309°
2026-04-24 16:08 -25.65861 124.78497 34101 ft 425 kts 308°
2026-04-24 16:09 -25.59944 124.71155 34106 ft 425 kts 309°
2026-04-24 16:09 -25.56014 124.66271 34102 ft 424 kts 308°
2026-04-24 16:11 -25.46219 124.54109 34104 ft 425 kts 308°
2026-04-24 16:11 -25.42285 124.49233 34109 ft 425 kts 308°
2026-04-24 16:12 -25.36386 124.41931 34104 ft 424 kts 308°
2026-04-24 16:13 -25.30488 124.34643 34103 ft 424 kts 308°
2026-04-24 16:14 -25.22626 124.24944 34099 ft 424 kts 308°
2026-04-24 16:14 -25.16750 124.17709 34105 ft 423 kts 308°
2026-04-24 16:15 -25.10840 124.10451 34109 ft 423 kts 309°
2026-04-24 16:16 -25.04935 124.03233 34096 ft 422 kts 309°
2026-04-24 16:17 -24.95132 123.91232 34098 ft 422 kts 309°
2026-04-24 16:18 -24.87263 123.81615 34104 ft 422 kts 309°
2026-04-24 16:19 -24.81354 123.74408 34098 ft 422 kts 309°
2026-04-24 16:20 -24.75447 123.67214 34105 ft 421 kts 309°
2026-04-24 16:20 -24.69574 123.60071 34095 ft 423 kts 309°
2026-04-24 16:21 -24.63642 123.52869 34096 ft 423 kts 309°
2026-04-24 16:22 -24.59686 123.48072 34102 ft 423 kts 309°
2026-04-24 16:22 -24.53748 123.40893 34097 ft 423 kts 310°
2026-04-24 16:23 -24.49779 123.36112 34091 ft 424 kts 310°
2026-04-24 16:24 -24.43829 123.28932 34094 ft 423 kts 310°
2026-04-24 16:24 -24.39861 123.24147 34094 ft 424 kts 310°
2026-04-24 16:25 -24.35910 123.19391 34096 ft 424 kts 310°
2026-04-24 16:25 -24.31938 123.14611 34088 ft 424 kts 309°
2026-04-24 16:26 -24.25983 123.07452 34095 ft 423 kts 309°
2026-04-24 16:27 -24.20022 123.00294 34092 ft 423 kts 309°
2026-04-24 16:27 -24.16051 122.95532 34092 ft 423 kts 309°
2026-04-24 16:28 -24.12104 122.90803 34089 ft 423 kts 309°
2026-04-24 16:28 -24.06119 122.83642 34091 ft 425 kts 310°
2026-04-24 16:29 -24.02124 122.78869 34089 ft 425 kts 310°
2026-04-24 16:30 -23.94131 122.69331 34091 ft 425 kts 310°
2026-04-24 16:30 -23.90134 122.64569 34091 ft 425 kts 310°
2026-04-24 16:31 -23.86134 122.59807 34092 ft 426 kts 310°
2026-04-24 16:31 -23.82117 122.55043 34093 ft 426 kts 310°
2026-04-24 16:32 -23.78100 122.50289 34089 ft 426 kts 310°
2026-04-24 16:32 -23.74090 122.45537 34089 ft 426 kts 310°
2026-04-24 16:33 -23.70076 122.40780 34072 ft 426 kts 310°
2026-04-24 16:33 -23.66070 122.36035 34084 ft 425 kts 310°
2026-04-24 16:34 -23.62089 122.31323 34086 ft 425 kts 310°
2026-04-24 16:34 -23.58077 122.26581 34083 ft 425 kts 310°
2026-04-24 16:35 -23.54065 122.21843 34084 ft 425 kts 310°
2026-04-24 16:35 -23.50051 122.17107 34083 ft 425 kts 310°
2026-04-24 16:36 -23.46038 122.12378 34083 ft 425 kts 310°
2026-04-24 16:36 -23.42026 122.07654 34082 ft 425 kts 310°
2026-04-24 16:37 -23.38016 122.02936 34080 ft 425 kts 310°
2026-04-24 16:37 -23.33996 121.98212 34082 ft 425 kts 310°
2026-04-24 16:38 -23.29972 121.93487 34083 ft 425 kts 310°
2026-04-24 16:38 -23.25948 121.88776 34078 ft 425 kts 310°
2026-04-24 16:39 -23.21940 121.84098 34082 ft 425 kts 310°
2026-04-24 16:39 -23.17911 121.79388 34086 ft 425 kts 310°
2026-04-24 16:40 -23.13887 121.74683 34081 ft 425 kts 311°
2026-04-24 16:40 -23.09868 121.69986 34078 ft 424 kts 311°
2026-04-24 16:41 -23.05844 121.65289 34078 ft 425 kts 311°
2026-04-24 16:41 -23.01820 121.60595 34076 ft 425 kts 311°
2026-04-24 16:42 -22.97794 121.55904 34074 ft 425 kts 311°
2026-04-24 16:42 -22.93766 121.51215 34087 ft 424 kts 311°
2026-04-24 16:43 -22.89744 121.46530 34077 ft 424 kts 311°
2026-04-24 16:43 -22.85728 121.41845 34078 ft 424 kts 311°
2026-04-24 16:44 -22.81711 121.37160 34069 ft 425 kts 311°
2026-04-24 16:44 -22.77701 121.32486 34074 ft 426 kts 311°
2026-04-24 16:45 -22.73667 121.27789 34073 ft 426 kts 311°
2026-04-24 16:45 -22.69625 121.23088 34081 ft 426 kts 311°
2026-04-24 16:46 -22.65596 121.18405 34073 ft 425 kts 311°
2026-04-24 16:46 -22.61564 121.13724 34072 ft 425 kts 311°
2026-04-24 16:47 -22.57521 121.09034 34071 ft 427 kts 311°
2026-04-24 16:47 -22.53467 121.04337 34072 ft 427 kts 311°
2026-04-24 16:48 -22.49416 120.99646 34073 ft 427 kts 311°
2026-04-24 16:48 -22.45363 120.94959 34079 ft 426 kts 311°
2026-04-24 16:49 -22.41320 120.90287 34073 ft 425 kts 311°
2026-04-24 16:49 -22.37274 120.85617 34064 ft 427 kts 311°
2026-04-24 16:50 -22.33197 120.80932 34067 ft 428 kts 311°
2026-04-24 16:50 -22.29123 120.76247 34067 ft 427 kts 311°
2026-04-24 16:51 -22.25080 120.71594 34066 ft 428 kts 311°
2026-04-24 16:51 -22.21010 120.66912 34067 ft 428 kts 311°
2026-04-24 16:52 -22.16936 120.62230 34061 ft 428 kts 311°
2026-04-24 16:52 -22.12855 120.57543 34058 ft 430 kts 311°
2026-04-24 16:53 -22.09452 120.53639 34065 ft 430 kts 311°
2026-04-24 16:53 -22.05355 120.48943 34058 ft 430 kts 311°
2026-04-24 16:54 -22.01259 120.44252 34062 ft 430 kts 311°
2026-04-24 16:54 -21.97157 120.39558 34072 ft 430 kts 311°
2026-04-24 16:55 -21.93061 120.34876 34054 ft 429 kts 311°
2026-04-24 16:55 -21.88959 120.30190 34058 ft 431 kts 311°
2026-04-24 16:56 -21.84846 120.25496 34057 ft 431 kts 311°
2026-04-24 16:56 -21.80728 120.20802 34058 ft 431 kts 311°
2026-04-24 16:57 -21.76630 120.16150 34056 ft 431 kts 311°
2026-04-24 16:57 -21.72505 120.11468 34054 ft 431 kts 311°
2026-04-24 16:58 -21.68386 120.06787 34057 ft 430 kts 311°
2026-04-24 16:58 -21.64266 120.02107 34048 ft 430 kts 311°
2026-04-24 16:59 -21.60152 119.97438 34044 ft 430 kts 311°
2026-04-24 17:00 -21.53974 119.90432 34044 ft 430 kts 311°
2026-04-24 17:00 -21.47804 119.83446 34042 ft 430 kts 311°
2026-04-24 17:01 -21.41633 119.76468 34038 ft 432 kts 312°
2026-04-24 17:02 -21.35417 119.69449 34029 ft 432 kts 312°
2026-04-24 17:02 -21.31275 119.64776 34032 ft 432 kts 312°
2026-04-24 17:03 -21.25054 119.57766 34034 ft 432 kts 312°
2026-04-24 17:04 -21.20894 119.53094 34037 ft 434 kts 312°
2026-04-24 17:04 -21.14638 119.46079 34025 ft 434 kts 312°
2026-04-24 17:05 -21.10470 119.41401 34026 ft 434 kts 312°
2026-04-24 17:06 -21.04241 119.34412 34024 ft 434 kts 312°
2026-04-24 17:06 -20.97986 119.27404 34012 ft 435 kts 312°
2026-04-24 17:07 -20.93798 119.22716 34021 ft 436 kts 312°
2026-04-24 17:08 -20.85413 119.13345 34018 ft 436 kts 312°
2026-04-24 17:08 -20.81241 119.08688 34019 ft 436 kts 312°
2026-04-24 17:09 -20.72846 118.99329 34013 ft 437 kts 312°
2026-04-24 17:10 -20.64418 118.89953 34014 ft 437 kts 312°
2026-04-24 17:12 -20.47061 118.71814 34011 ft 440 kts 317°
2026-04-24 18:54 -10.53385 110.23788 33888 ft 474 kts 321°
2026-04-24 18:55 -10.45651 110.17565 33887 ft 474 kts 321°
2026-04-24 18:56 -10.40492 110.13416 33891 ft 473 kts 321°
2026-04-24 18:56 -10.35321 110.09259 33886 ft 474 kts 320°
2026-04-24 18:57 -10.30158 110.05111 33888 ft 473 kts 320°
2026-04-24 18:57 -10.24974 110.00946 33884 ft 474 kts 321°
2026-04-24 18:58 -10.19833 109.96819 33881 ft 474 kts 321°
2026-04-24 18:58 -10.14656 109.92663 33882 ft 475 kts 321°
2026-04-24 18:59 -10.09477 109.88510 33876 ft 472 kts 321°
2026-04-24 18:59 -10.04304 109.84364 33879 ft 474 kts 321°
2026-04-24 19:00 -9.99128 109.80221 33881 ft 473 kts 321°
2026-04-24 19:00 -9.93949 109.76075 33877 ft 475 kts 321°
2026-04-24 19:01 -9.88761 109.71922 33881 ft 475 kts 320°
2026-04-24 19:01 -9.83608 109.67797 33880 ft 475 kts 320°
2026-04-24 19:02 -9.79256 109.64315 33878 ft 475 kts 320°
2026-04-24 19:02 -9.73225 109.59492 33878 ft 475 kts 320°
2026-04-24 19:03 -9.68028 109.55337 33878 ft 475 kts 320°
2026-04-24 19:03 -9.62841 109.51191 33877 ft 474 kts 320°
2026-04-24 19:04 -9.57647 109.47042 33874 ft 476 kts 321°
2026-04-24 19:04 -9.52451 109.42893 33877 ft 475 kts 320°
2026-04-24 19:05 -9.47253 109.38744 33873 ft 476 kts 321°
2026-04-24 19:05 -9.42056 109.34598 33878 ft 475 kts 320°
2026-04-24 19:06 -9.36877 109.30469 33879 ft 474 kts 321°
2026-04-24 19:06 -9.31680 109.26332 33874 ft 475 kts 320°
2026-04-24 19:07 -9.26493 109.22200 33872 ft 474 kts 321°
2026-04-24 19:07 -9.22173 109.18759 33877 ft 476 kts 321°
2026-04-24 19:08 -9.16137 109.13952 33869 ft 474 kts 321°
2026-04-24 19:08 -9.10943 109.09818 33875 ft 476 kts 321°
2026-04-24 19:09 -9.05742 109.05680 33874 ft 475 kts 321°
2026-04-24 19:09 -9.00546 109.01547 33875 ft 476 kts 321°
2026-04-24 19:10 -8.95337 108.97405 33872 ft 476 kts 322°
2026-04-24 19:10 -8.90133 108.93269 33874 ft 476 kts 321°
2026-04-24 19:11 -8.84922 108.89129 33870 ft 476 kts 322°
2026-04-24 19:11 -8.79712 108.84992 33873 ft 476 kts 322°
2026-04-24 19:12 -8.74502 108.80855 33876 ft 477 kts 321°
2026-04-24 19:12 -8.69317 108.76744 33876 ft 476 kts 322°
2026-04-24 19:13 -8.64977 108.73305 33877 ft 478 kts 321°
2026-04-24 19:13 -8.58860 108.68454 33874 ft 478 kts 322°
2026-04-24 19:14 -8.53619 108.64300 33873 ft 478 kts 322°
2026-04-24 19:14 -8.48372 108.60142 33872 ft 479 kts 322°
2026-04-24 19:15 -8.43124 108.55985 33871 ft 479 kts 322°
2026-04-24 19:15 -8.37920 108.51864 33870 ft 479 kts 322°
2026-04-24 19:16 -8.30047 108.45632 33870 ft 479 kts 322°
2026-04-24 19:16 -8.24797 108.41479 33864 ft 482 kts 322°
2026-04-24 19:17 -8.20406 108.38005 33872 ft 483 kts 322°
2026-04-24 19:17 -8.15112 108.33820 33870 ft 483 kts 322°
2026-04-24 19:18 -8.09819 108.29636 33868 ft 483 kts 322°
2026-04-24 19:18 -8.04510 108.25465 33871 ft 483 kts 322°
2026-04-24 19:19 -7.99178 108.21333 33867 ft 484 kts 322°
2026-04-24 19:19 -7.93840 108.17205 33870 ft 484 kts 322°
2026-04-24 19:20 -7.88488 108.13063 33879 ft 485 kts 323°
2026-04-24 19:20 -7.83126 108.08913 33877 ft 486 kts 322°
2026-04-24 19:21 -7.77757 108.04758 33895 ft 486 kts 322°
2026-04-24 19:21 -7.72393 108.00607 33896 ft 486 kts 323°
2026-04-24 19:22 -7.67030 107.96460 33895 ft 486 kts 322°
2026-04-24 19:22 -7.61703 107.92340 33913 ft 486 kts 323°
2026-04-24 19:23 -7.56337 107.88194 33910 ft 486 kts 323°
2026-04-24 19:23 -7.50964 107.84041 33937 ft 486 kts 323°
2026-04-24 19:24 -7.45589 107.79890 33938 ft 487 kts 323°
2026-04-24 19:24 -7.40207 107.75735 33935 ft 486 kts 323°
2026-04-24 19:25 -7.34834 107.71592 33952 ft 486 kts 323°
2026-04-24 19:25 -7.29463 107.67450 33950 ft 486 kts 323°
2026-04-24 19:26 -7.24092 107.63306 33951 ft 486 kts 323°
2026-04-24 19:26 -7.18721 107.59164 33957 ft 486 kts 322°
2026-04-24 19:27 -7.13376 107.55043 33950 ft 486 kts 323°
2026-04-24 19:27 -7.08005 107.50901 33955 ft 487 kts 323°
2026-04-24 19:28 -7.02640 107.46737 33951 ft 486 kts 322°
2026-04-24 19:28 -6.97282 107.42567 33949 ft 486 kts 322°
2026-04-24 19:29 -6.89251 107.36319 33940 ft 486 kts 322°
2026-04-24 19:30 -6.83901 107.32161 33935 ft 485 kts 322°
2026-04-24 19:30 -6.78550 107.28003 33925 ft 485 kts 322°
2026-04-24 19:31 -6.73202 107.23849 33923 ft 485 kts 322°
2026-04-24 19:31 -6.67857 107.19698 33903 ft 485 kts 322°
2026-04-24 19:32 -6.62543 107.15572 33905 ft 485 kts 322°
2026-04-24 19:32 -6.57193 107.11420 33903 ft 485 kts 322°
2026-04-24 19:33 -6.51842 107.07268 33892 ft 486 kts 322°
2026-04-24 19:33 -6.46488 107.03114 33890 ft 487 kts 322°
2026-04-24 19:34 -6.41116 106.98950 33893 ft 487 kts 322°
2026-04-24 19:34 -6.35750 106.94793 33875 ft 487 kts 322°
2026-04-24 19:35 -6.30366 106.90651 33870 ft 487 kts 325°
2026-04-24 19:35 -6.24320 106.87656 33858 ft 486 kts 342°
2026-04-24 19:36 -6.17813 106.85786 33859 ft 487 kts 345°
2026-04-24 19:36 -6.11260 106.83974 33852 ft 489 kts 344°
2026-04-24 19:37 -6.04770 106.82053 33851 ft 489 kts 343°
2026-04-24 19:37 -5.98260 106.80067 33851 ft 489 kts 343°
2026-04-24 19:38 -5.91744 106.78072 33850 ft 489 kts 343°
2026-04-24 19:38 -5.85232 106.76084 33842 ft 489 kts 343°
2026-04-24 19:39 -5.78723 106.74099 33849 ft 489 kts 344°
2026-04-24 19:39 -5.72203 106.72112 33846 ft 489 kts 344°
2026-04-24 19:40 -5.65692 106.70128 33841 ft 489 kts 343°
2026-04-24 19:40 -5.59164 106.68140 33843 ft 490 kts 343°
2026-04-24 19:41 -5.52639 106.66153 33845 ft 490 kts 344°
2026-04-24 19:41 -5.46108 106.64165 33843 ft 491 kts 343°
2026-04-24 19:42 -5.39565 106.62174 33841 ft 491 kts 343°
2026-04-24 19:42 -5.33069 106.60198 33846 ft 491 kts 343°
2026-04-24 19:43 -5.26532 106.58208 33842 ft 491 kts 343°
2026-04-24 19:43 -5.19984 106.56217 33849 ft 491 kts 343°
2026-04-24 19:44 -5.13438 106.54226 33845 ft 491 kts 343°
2026-04-24 19:44 -5.06903 106.52238 33846 ft 489 kts 344°
2026-04-24 19:45 -5.00389 106.50258 33846 ft 489 kts 344°
2026-04-24 19:45 -4.93881 106.48280 33846 ft 489 kts 344°
2026-04-24 19:46 -4.87367 106.46299 33848 ft 489 kts 343°
2026-04-24 19:46 -4.81138 106.43667 33841 ft 490 kts 334°
2026-04-24 19:47 -4.75124 106.40419 33837 ft 491 kts 332°
2026-04-24 19:47 -4.69133 106.37143 33843 ft 490 kts 333°
2026-04-24 19:48 -4.63108 106.33926 33844 ft 490 kts 333°
2026-04-24 19:48 -4.54051 106.29143 33846 ft 490 kts 333°
2026-04-24 19:49 -4.42023 106.22795 33844 ft 490 kts 333°
2026-04-24 19:50 -4.29958 106.16425 33842 ft 490 kts 333°
2026-04-24 19:51 -4.20904 106.11646 33843 ft 490 kts 333°
2026-04-24 19:52 -4.11845 106.06893 33843 ft 490 kts 335°
2026-04-24 19:52 -4.05627 106.04076 33846 ft 490 kts 338°
2026-04-24 19:53 -3.99330 106.01430 33846 ft 490 kts 338°
2026-04-24 19:54 -3.89938 105.97462 33846 ft 491 kts 338°
2026-04-24 19:54 -3.83643 105.94776 33845 ft 492 kts 338°
2026-04-24 19:55 -3.79435 105.92977 33846 ft 492 kts 338°
2026-04-24 19:55 -3.71052 105.89397 33849 ft 492 kts 338°
2026-04-24 19:56 -3.64761 105.86712 33839 ft 492 kts 338°
2026-04-24 19:56 -3.58449 105.84018 33843 ft 492 kts 338°
2026-04-24 19:57 -3.52144 105.81328 33844 ft 492 kts 338°
2026-04-24 19:57 -3.45845 105.78640 33842 ft 492 kts 338°
2026-04-24 19:58 -3.39540 105.75951 33846 ft 492 kts 338°
2026-04-24 19:58 -3.33240 105.73264 33845 ft 492 kts 338°
2026-04-24 19:59 -3.26934 105.70576 33845 ft 492 kts 338°
2026-04-24 19:59 -3.20669 105.67905 33845 ft 492 kts 338°
2026-04-24 20:00 -3.14366 105.65218 33844 ft 492 kts 338°
2026-04-24 20:00 -3.08069 105.62533 33848 ft 490 kts 338°
2026-04-24 20:01 -3.01807 105.59864 33843 ft 489 kts 338°
2026-04-24 20:01 -2.95551 105.57198 33846 ft 489 kts 338°
2026-04-24 20:02 -2.90356 105.54984 33846 ft 487 kts 338°
2026-04-24 20:02 -2.83082 105.51885 33844 ft 486 kts 338°
2026-04-24 20:03 -2.76862 105.49235 33843 ft 486 kts 338°
2026-04-24 20:03 -2.71693 105.47034 33844 ft 486 kts 338°
2026-04-24 20:04 -2.65471 105.44383 33841 ft 486 kts 338°
2026-04-24 20:04 -2.59243 105.41731 33843 ft 486 kts 338°
2026-04-24 20:05 -2.53018 105.39087 33844 ft 486 kts 338°
2026-04-24 20:05 -2.46758 105.36541 33846 ft 485 kts 339°
2026-04-24 20:06 -2.40481 105.34049 33846 ft 485 kts 339°
2026-04-24 20:06 -2.34240 105.31570 33843 ft 485 kts 339°
2026-04-24 20:07 -2.28979 105.29475 33837 ft 485 kts 339°
2026-04-24 20:07 -2.21652 105.26554 33842 ft 490 kts 338°
2026-04-24 20:08 -2.15327 105.24031 33842 ft 489 kts 339°
2026-04-24 20:08 -2.09011 105.21513 33843 ft 488 kts 339°
2026-04-24 20:09 -2.02691 105.18994 33844 ft 488 kts 339°
2026-04-24 20:09 -1.96415 105.16493 33844 ft 488 kts 339°
2026-04-24 20:10 -1.90101 105.13977 33839 ft 488 kts 339°
2026-04-24 20:10 -1.83792 105.11462 33837 ft 488 kts 339°
2026-04-24 20:11 -1.77464 105.08941 33838 ft 489 kts 339°
2026-04-24 20:11 -1.71136 105.06420 33843 ft 490 kts 339°
2026-04-24 20:12 -1.64806 105.03898 33845 ft 489 kts 339°
2026-04-24 20:12 -1.58472 105.01375 33844 ft 490 kts 339°
2026-04-24 20:13 -1.52142 104.98853 33843 ft 490 kts 339°
2026-04-24 20:13 -1.45806 104.96329 33844 ft 490 kts 339°
2026-04-24 20:14 -1.39496 104.93816 33843 ft 491 kts 339°
2026-04-24 20:14 -1.33150 104.91288 33836 ft 491 kts 339°
2026-04-24 20:15 -1.26789 104.88755 33849 ft 492 kts 339°
2026-04-24 20:15 -1.20424 104.86220 33847 ft 492 kts 339°
2026-04-24 20:16 -1.14061 104.83686 33845 ft 492 kts 339°
2026-04-24 20:16 -1.07692 104.81150 33843 ft 493 kts 339°
2026-04-24 20:17 -1.01310 104.78609 33847 ft 494 kts 339°
2026-04-24 20:17 -0.91726 104.74793 33843 ft 494 kts 339°
2026-04-24 20:18 -0.85340 104.72251 33843 ft 494 kts 339°
2026-04-24 20:18 -0.78993 104.69724 33842 ft 494 kts 339°
2026-04-24 20:19 -0.72608 104.67182 33849 ft 494 kts 339°
2026-04-24 20:19 -0.66225 104.64640 33841 ft 493 kts 339°
2026-04-24 20:20 -0.59852 104.62104 33841 ft 493 kts 339°
2026-04-24 20:20 -0.53477 104.59566 33845 ft 493 kts 339°
2026-04-24 20:21 -0.47102 104.56995 33843 ft 493 kts 338°
2026-04-24 20:21 -0.40782 104.54304 33838 ft 494 kts 338°
2026-04-24 20:22 -0.34479 104.51583 33843 ft 493 kts 338°
2026-04-24 20:22 -0.28219 104.48889 33843 ft 493 kts 338°
2026-04-24 20:23 -0.21910 104.46181 33842 ft 493 kts 338°
2026-04-24 20:23 -0.15602 104.43476 33844 ft 493 kts 338°
2026-04-24 20:24 -0.09290 104.40769 33845 ft 493 kts 338°
2026-04-24 20:24 -0.02977 104.38061 33844 ft 493 kts 338°
2026-04-24 20:25 0.03333 104.35354 33841 ft 494 kts 338°
2026-04-24 20:25 0.09644 104.32647 33842 ft 494 kts 338°
2026-04-24 20:26 0.15935 104.29948 33830 ft 494 kts 338°
2026-04-24 20:26 0.22254 104.27237 33845 ft 494 kts 338°
2026-04-24 20:27 0.28537 104.24542 33838 ft 494 kts 338°
2026-04-24 20:27 0.34854 104.21832 33844 ft 494 kts 338°
2026-04-24 20:28 0.41171 104.19122 33844 ft 494 kts 338°
2026-04-24 20:28 0.47494 104.16409 33830 ft 494 kts 338°
2026-04-24 20:29 0.53808 104.13700 33843 ft 494 kts 338°
2026-04-24 20:29 0.60133 104.10986 33841 ft 494 kts 338°
2026-04-24 20:30 0.66441 104.08280 33841 ft 493 kts 338°
2026-04-24 20:30 0.72710 104.05590 33845 ft 493 kts 338°
2026-04-24 20:31 0.79038 104.02941 33849 ft 493 kts 339°
2026-04-24 20:31 0.85399 104.00365 33850 ft 493 kts 339°
2026-04-24 20:32 0.91754 103.97800 33837 ft 493 kts 339°
2026-04-24 20:32 0.98117 103.95224 33853 ft 493 kts 339°
2026-04-24 20:33 1.04470 103.92643 33852 ft 493 kts 339°
2026-04-24 20:33 1.10833 103.90057 33842 ft 493 kts 339°
2026-04-24 20:34 1.17187 103.87473 33861 ft 493 kts 339°
2026-04-24 20:34 1.23481 103.84742 33847 ft 493 kts 335°
2026-04-24 20:35 1.29610 103.81636 33863 ft 494 kts 333°
2026-04-24 20:35 1.35651 103.78458 33851 ft 494 kts 334°
2026-04-24 20:36 1.41758 103.75305 33859 ft 494 kts 334°
2026-04-24 20:36 1.47873 103.72164 33859 ft 494 kts 335°
2026-04-24 20:37 1.54246 103.69632 33854 ft 492 kts 343°
2026-04-24 20:37 1.60797 103.67635 33865 ft 492 kts 345°
2026-04-24 20:38 1.67345 103.65633 33851 ft 493 kts 342°
2026-04-24 20:38 1.73414 103.62564 33852 ft 495 kts 324°
2026-04-24 20:39 1.78182 103.57620 33851 ft 497 kts 304°
2026-04-24 20:39 1.81126 103.51388 33854 ft 498 kts 285°
2026-04-24 20:40 1.82419 103.44592 33853 ft 498 kts 277°
2026-04-24 20:40 1.83308 103.37722 33850 ft 498 kts 277°
2026-04-24 20:41 1.84316 103.30868 33850 ft 498 kts 281°
2026-04-24 20:41 1.86567 103.24339 33846 ft 498 kts 295°
2026-04-24 20:42 1.89680 103.18197 33858 ft 498 kts 297°
2026-04-24 20:42 1.92848 103.12032 33841 ft 498 kts 296°
2026-04-24 20:43 1.95918 103.05827 33845 ft 498 kts 296°
2026-04-24 20:43 1.98947 102.99603 33846 ft 498 kts 295°
2026-04-24 20:44 2.01972 102.93376 33847 ft 498 kts 296°
2026-04-24 20:44 2.04997 102.87153 33850 ft 498 kts 295°
2026-04-24 20:45 2.08020 102.80921 33843 ft 498 kts 295°
2026-04-24 20:45 2.11018 102.74734 33848 ft 498 kts 295°
2026-04-24 20:46 2.14042 102.68494 33847 ft 499 kts 295°
2026-04-24 20:46 2.17342 102.62395 33847 ft 499 kts 301°
2026-04-24 20:47 2.20996 102.56499 33848 ft 499 kts 302°
2026-04-24 20:47 2.24689 102.50623 33850 ft 498 kts 302°
2026-04-24 20:48 2.28342 102.44744 33845 ft 498 kts 301°
2026-04-24 20:48 2.31979 102.38853 33848 ft 498 kts 302°
2026-04-24 20:49 2.35598 102.32985 33846 ft 498 kts 302°
2026-04-24 20:49 2.39242 102.27095 33842 ft 498 kts 302°
2026-04-24 20:50 2.42903 102.21201 33842 ft 498 kts 302°
2026-04-24 20:50 2.46563 102.15313 33839 ft 498 kts 302°
2026-04-24 20:51 2.50222 102.09423 33835 ft 498 kts 302°
2026-04-24 20:51 2.53878 102.03531 33833 ft 499 kts 302°
2026-04-24 20:52 2.56911 101.98616 33830 ft 500 kts 302°
2026-04-24 20:52 2.60558 101.92696 33832 ft 500 kts 302°
2026-04-24 20:53 2.64202 101.86779 33824 ft 498 kts 302°
2026-04-24 20:53 2.67835 101.80882 33828 ft 498 kts 302°
2026-04-24 20:54 2.71574 101.75051 33828 ft 497 kts 306°
2026-04-24 20:54 2.75804 101.69586 33828 ft 497 kts 309°
2026-04-24 20:55 2.80175 101.64232 33831 ft 496 kts 309°
2026-04-24 20:55 2.84517 101.58866 33828 ft 496 kts 309°
2026-04-24 20:56 2.88836 101.53475 33826 ft 496 kts 309°
2026-04-24 20:56 2.93144 101.48082 33827 ft 496 kts 309°
2026-04-24 20:57 2.97429 101.42717 33828 ft 496 kts 309°
2026-04-24 20:57 3.01739 101.37322 33831 ft 496 kts 309°
2026-04-24 20:58 3.06051 101.31925 33831 ft 496 kts 309°
2026-04-24 20:58 3.10357 101.26536 33831 ft 496 kts 309°
2026-04-24 20:59 3.15088 101.21550 33834 ft 494 kts 323°
2026-04-24 20:59 3.21099 101.18261 33836 ft 493 kts 338°
2026-04-24 21:00 3.27422 101.15693 33837 ft 494 kts 338°
2026-04-24 21:00 3.33740 101.12989 33836 ft 494 kts 337°
2026-04-24 21:01 3.40032 101.10223 33837 ft 492 kts 337°
2026-04-24 21:01 3.46294 101.07474 33841 ft 491 kts 337°
2026-04-24 21:02 3.52540 101.04734 34142 ft 488 kts 337°
2026-04-24 21:02 3.55657 101.03366 34278 ft 490 kts 337°
2026-04-24 21:02 3.58781 101.01991 34327 ft 490 kts 336°
2026-04-24 21:03 3.64906 100.99253 34069 ft 468 kts 336°
2026-04-24 21:03 3.67858 100.97924 33585 ft 464 kts 336°
2026-04-24 21:03 3.70796 100.96601 32905 ft 463 kts 336°
2026-04-24 21:04 3.73746 100.95273 32249 ft 464 kts 336°
2026-04-24 21:04 3.76704 100.93943 31633 ft 467 kts 336°
2026-04-24 21:04 3.79671 100.92609 31009 ft 469 kts 336°
2026-04-24 21:04 3.82659 100.91265 30395 ft 471 kts 336°
2026-04-24 21:05 3.85650 100.89920 29743 ft 473 kts 336°
2026-04-24 21:05 3.88659 100.88566 29034 ft 474 kts 336°
2026-04-24 21:05 3.91632 100.87229 28379 ft 475 kts 336°
2026-04-24 21:05 3.94655 100.85869 27733 ft 476 kts 336°
2026-04-24 21:06 3.97687 100.84505 27088 ft 477 kts 336°
2026-04-24 21:06 4.00721 100.83140 26457 ft 478 kts 336°
2026-04-24 21:06 4.03756 100.81775 25822 ft 479 kts 336°
2026-04-24 21:06 4.06793 100.80408 25182 ft 480 kts 337°
2026-04-24 21:07 4.09842 100.79036 24541 ft 480 kts 337°
2026-04-24 21:07 4.12891 100.77664 23893 ft 481 kts 337°
2026-04-24 21:07 4.15950 100.76289 23224 ft 482 kts 337°
2026-04-24 21:07 4.19010 100.74928 22462 ft 479 kts 338°
2026-04-24 21:08 4.22048 100.73590 21732 ft 475 kts 338°
2026-04-24 21:08 4.25059 100.72270 21028 ft 470 kts 338°
2026-04-24 21:08 4.28049 100.70961 20337 ft 466 kts 338°
2026-04-24 21:08 4.31008 100.69666 19666 ft 462 kts 338°
2026-04-24 21:09 4.33936 100.68383 18992 ft 458 kts 338°
2026-04-24 21:09 4.36847 100.67107 18333 ft 454 kts 338°
2026-04-24 21:09 4.39738 100.65839 17610 ft 450 kts 338°
2026-04-24 21:09 4.42590 100.64588 16912 ft 445 kts 338°
2026-04-24 21:10 4.45416 100.63348 16249 ft 441 kts 338°
2026-04-24 21:10 4.48213 100.62121 15615 ft 436 kts 338°
2026-04-24 21:10 4.50945 100.60922 15009 ft 432 kts 338°
2026-04-24 21:10 4.53686 100.59719 14394 ft 428 kts 338°
2026-04-24 21:11 4.56403 100.58527 13781 ft 424 kts 338°
2026-04-24 21:11 4.59089 100.57347 13129 ft 420 kts 338°
2026-04-24 21:11 4.61748 100.56181 12486 ft 414 kts 337°
2026-04-24 21:11 4.64378 100.55026 11900 ft 410 kts 337°
2026-04-24 21:12 4.66987 100.53881 11341 ft 407 kts 337°
2026-04-24 21:12 4.69564 100.52749 10980 ft 404 kts 337°
2026-04-24 21:12 4.72101 100.51635 10828 ft 387 kts 337°
2026-04-24 21:12 4.74473 100.50592 10696 ft 354 kts 337°
2026-04-24 21:13 4.76626 100.49645 10563 ft 322 kts 337°
2026-04-24 21:13 4.78610 100.48773 10444 ft 304 kts 337°
2026-04-24 21:13 4.80541 100.47927 10286 ft 302 kts 337°
2026-04-24 21:13 4.82382 100.46944 9920 ft 300 kts 322°
2026-04-24 21:14 4.83859 100.45482 9374 ft 297 kts 310°
2026-04-24 21:14 4.85131 100.43862 8836 ft 294 kts 307°
2026-04-24 21:14 4.86348 100.42223 8332 ft 291 kts 307°
2026-04-24 21:14 4.87547 100.40601 7835 ft 289 kts 307°
2026-04-24 21:15 4.88744 100.38991 7382 ft 289 kts 307°
2026-04-24 21:15 4.89950 100.37378 6991 ft 288 kts 307°
2026-04-24 21:15 4.91137 100.35796 6806 ft 281 kts 307°
2026-04-24 21:15 4.92303 100.34247 6755 ft 282 kts 308°
2026-04-24 21:16 4.93474 100.32694 6697 ft 281 kts 308°
2026-04-24 21:16 4.94655 100.31129 6648 ft 281 kts 308°
2026-04-24 21:16 4.95835 100.29566 6589 ft 281 kts 308°
2026-04-24 21:16 4.97017 100.28002 6515 ft 281 kts 308°
2026-04-24 21:17 4.98196 100.26442 6459 ft 280 kts 308°
2026-04-24 21:17 4.99383 100.24872 6171 ft 283 kts 308°
2026-04-24 21:17 5.00572 100.23299 5760 ft 282 kts 308°
2026-04-24 21:17 5.01755 100.21733 5348 ft 282 kts 308°
2026-04-24 21:18 5.02949 100.20174 4943 ft 279 kts 312°
2026-04-24 21:18 5.04410 100.18927 4552 ft 274 kts 328°
2026-04-24 21:18 5.06044 100.17957 4164 ft 272 kts 333°
2026-04-24 21:18 5.07700 100.17062 3783 ft 269 kts 334°
2026-04-24 21:19 5.09333 100.16194 3523 ft 262 kts 333°
2026-04-24 21:19 5.10936 100.15344 3215 ft 258 kts 334°
2026-04-24 21:19 5.12579 100.14646 2873 ft 255 kts 347°
2026-04-24 21:19 5.14287 100.14538 2556 ft 244 kts 11°
2026-04-24 21:20 5.17039 100.16135 2498 ft 220 kts 39°
2026-04-24 21:20 5.18133 100.17091 2508 ft 206 kts 42°
2026-04-24 21:20 5.19168 100.18036 2404 ft 196 kts 43°
2026-04-24 21:21 5.20131 100.18916 2147 ft 180 kts 43°
2026-04-24 21:21 5.21026 100.19733 1920 ft 170 kts 43°
2026-04-24 21:21 5.21896 100.20528 1721 ft 169 kts 43°
2026-04-24 21:21 5.22760 100.21318 1517 ft 168 kts 43°
2026-04-24 21:22 5.23625 100.22108 1300 ft 168 kts 43°
2026-04-24 21:22 5.24487 100.22896 1090 ft 167 kts 43°
2026-04-24 21:22 5.25338 100.23697 812 ft 167 kts 43°
2026-04-24 21:22 5.25912 100.24217 723 ft 169 kts 42°
2026-04-24 21:23 5.27071 100.25281 451 ft 167 kts 41°
2026-04-24 21:23 5.27934 100.26067 251 ft 167 kts 42°
2026-04-24 21:23 5.28794 100.26848 40 ft 165 kts 42°
2026-04-24 21:23 5.29547 100.27534 31 ft 123 kts 42°
2026-04-24 21:24 5.30068 100.28007 33 ft 84 kts 42°
2026-04-24 21:24 5.30412 100.28319 29 ft 49 kts 42°
2026-04-24 21:24 5.30613 100.28501 32 ft 34 kts 42°
2026-04-24 21:24 5.30761 100.28634 32 ft 27 kts 39°
2026-04-24 21:25 5.30874 100.28639 32 ft 11 kts 315°
2026-04-24 21:25 5.30905 100.28571 30 ft 5 kts 274°
2026-04-24 21:25 5.30882 100.28516 30 ft 10 kts 235°
2026-04-24 21:25 5.30850 100.28484 30 ft 5 kts 224°
2026-04-24 21:26 5.30812 100.28448 30 ft 11 kts 222°
2026-04-24 21:26 5.30744 100.28387 30 ft 13 kts 221°
2026-04-24 21:26 5.30680 100.28329 30 ft 13 kts 222°
2026-04-24 21:26 5.30604 100.28262 30 ft 14 kts 222°
2026-04-24 21:27 5.30527 100.28191 29 ft 16 kts 223°
2026-04-24 21:27 5.30449 100.28119 30 ft 14 kts 223°
2026-04-24 21:27 5.30376 100.28051 30 ft 16 kts 224°
2026-04-24 21:27 5.30323 100.27998 30 ft 16 kts 225°
2026-04-24 21:28 5.30227 100.27902 30 ft 14 kts 225°
2026-04-24 21:28 5.30136 100.27812 30 ft 20 kts 225°
2026-04-24 21:28 5.30033 100.27715 30 ft 20 kts 222°
2026-04-24 21:28 5.29928 100.27617 30 ft 20 kts 223°
2026-04-24 21:29 5.29829 100.27526 30 ft 20 kts 221°
2026-04-24 21:29 5.29724 100.27431 30 ft 20 kts 222°
2026-04-24 21:29 5.29624 100.27340 30 ft 20 kts 222°
2026-04-24 21:29 5.29522 100.27247 30 ft 19 kts 222°
2026-04-24 21:30 5.29416 100.27152 30 ft 20 kts 222°
2026-04-24 21:30 5.29318 100.27063 30 ft 19 kts 222°
2026-04-24 21:30 5.29211 100.26967 31 ft 21 kts 222°
2026-04-24 21:30 5.29105 100.26872 31 ft 21 kts 222°
2026-04-24 21:31 5.28999 100.26776 31 ft 17 kts 221°
2026-04-24 21:31 5.28915 100.26701 31 ft 15 kts 221°
2026-04-24 21:31 5.28839 100.26633 30 ft 12 kts 221°
2026-04-24 21:31 5.28801 100.26573 30 ft 10 kts 266°
2026-04-24 21:32 5.28831 100.26509 30 ft 10 kts 307°
2026-04-24 21:32 5.28879 100.26452 30 ft 10 kts 311°
2026-04-24 21:32 5.28910 100.26417 30 ft 5 kts 311°
2026-04-24 21:32 5.28919 100.26406 30 ft 2 kts 312°
2026-04-24 21:33 5.28928 100.26396 30 ft 1 kts 311°
2026-04-24 21:33 5.28930 100.26394 30 ft 0 kts 312°